Location: Newark
(39.6172°N, 96.8533°W)
Time: 16:21:45
(UTC+00:00)

Envisat - Pass Details

Date: 27 January 2020
Orbit: 764 x 766 km, 98.1° (Epoch: 17 February)

Event Time Altitude Azimuth Distance (km) Brightness Sun altitude
Rises 11:40:48 0° 37° (NE) 3,237 6.7 -22.9°
Reaches altitude 10° 11:44:53 10° 69° (ENE) 2,303 6.3 -22.1°
Maximum altitude 11:46:36 12° 89° (E) 2,190 6.5 -21.8°
Drops below altitude 10° 11:48:18 10° 109° (ESE) 2,298 6.6 -21.5°
Sets 11:52:21 0° 142° (SE) 3,217 6.9 -20.7°
